Tracking 29892 objects as of 21-Nov-2024
HD Live streaming from Space Station
objects crossing your sky now

THOR ABLE DEB (YO)

Track THOR ABLE DEB (YO) now!
10-day predictions


NORAD ID: 115
Int'l Code: 1960-002D
Perigee: 577.8 km
Apogee: 617.7 km
Inclination: 48.2 °
Period: 96.5 minutes
Semi major axis: 6968 km
RCS: 0.0477 m2 (small)
Launch date: April 1, 1960
Source: United States (US)
Launch site: AIR FORCE EASTERN TEST RANGE (AFETR)

Note: This is SATELLITE DEBRIS
Your satellite tracking list
Your tracking list is empty




NASA's NSSDC Master Catalog

Two Line Element Set (TLE):
1 00115U 60002D   24325.19605537  .00005121  00000-0  51381-3 0  9997
2 00115  48.1646  33.8014 0028614 202.4794 157.4870 14.92354138432210
Source of the keplerian elements: AFSPC